Regional Weather Roundup
Issued by NWS

Home | Current Version | Previous Version | Text Only | Print | Product List | Glossary On
Versions: 1 2 3 4 5 6 7 8 9 10 11 12 13 14 15 16 17 18 19 20 21 22 23 24 25 26 27 28 29 30 31 32 33 34 35 36 37 38 39 40 41 42 43 44 45 46 47 48 49 50
000
ASUS43 KLSX 010907
RWRMO

WEATHER SUMMARY FOR MISSOURI
NATIONAL WEATHER SERVICE SPRINGFIELD MO
400 AM CDT WED APR 01 2015

NOTE: "FAIR" INDICATES FEW OR NO CLOUDS BELOW 12,000 FEET WITH NO
       SIGNIFICANT WEATHER AND/OR OBSTRUCTIONS TO VISIBILITY.
       CURRENT SKY AND/OR WEATHER CONDITIONS ARE NOT AVAILABLE FOR
       CHILLICOTHE AND FARMINGTON.

MOZ001>031-035>038-043-044-053-054-011000-
...NORTHERN AND WESTERN MISSOURI...

CITY           SKY/WX    TMP DP  RH WIND       PRES   REMARKS
KANSAS CTY INT PTCLDY    57  33  40 SE14      29.91F
KANSAS C DTWN  PTCLDY    64  31  28 SE12G20   29.91F
LEE`S SUMMIT   MOCLDY    59  32  36 SE10      29.92F
ST JOSEPH      CLEAR     52  35  52 S6        29.90F
CHILLICOTHE      N/A     53  35  50 S5        29.94R
KIRKSVILLE     CLEAR     48  35  60 S8        29.94S

$$
MOZ066>068-077>081-088>096-101>105-011000-
...SOUTHWEST MISSOURI...

CITY           SKY/WX    TMP DP  RH WIND       PRES   REMARKS
SPRINGFIELD    MOCLDY    58  45  62 SE12      29.94F
JOPLIN         CLOUDY    57  46  66 SE7       29.91F

$$
MOZ032>034-039>042-045>050-055>058-069>072-011000-
...CENTRAL MISSOURI...

CITY           SKY/WX    TMP DP  RH WIND       PRES   REMARKS
COLUMBIA       CLEAR     53  34  48 SE8       29.97R
JEFFERSON CITY CLEAR     41  35  79 SE5       29.97S
ROLLA          CLEAR     53  34  48 SE10      29.97S
SEDALIA        CLEAR     52  35  52 S10       29.96F
WHITEMAN AFB   CLEAR     53  35  49 SE5       29.93F
WARRENSBURG    PTCLDY    50  34  53 SE7       29.94F
OSAGE BEACH    CLEAR     55  32  41 SE5       29.97S

$$
MOZ051-052-059>065-011000-
...EAST CENTRAL MISSOURI...

CITY           SKY/WX    TMP DP  RH WIND       PRES   REMARKS
ST LOUIS INTL  CLEAR     56  36  47 S5        29.98F
SPIRIT OF STL  CLEAR     39  35  86 CALM      29.98S
ST CHARLES     CLEAR     42  39  89 NE3       29.98R

$$
MOZ072>076-082>087-097>100-106>115-011000-
...SOUTH CENTRAL AND SOUTHEAST MISSOURI...

CITY           SKY/WX    TMP DP  RH WIND       PRES   REMARKS
CAPE GIRARDEAU CLEAR     45  39  79 CALM      30.00S
FARMINGTON     CLEAR     41  34  75 CALM      30.03S
POPLAR BLUFF   CLEAR     48  43  82 N3        30.00R
WEST PLAINS    CLEAR     53  40  61 NE7       30.00S

$$



USA.gov is the U.S. government's official web portal to all federal, state and local government web resources and services.